Terminal Aerodrome Forecast
Issued by NWS

Home | Current Version | Previous Version | Text Only | Print | Product List | Glossary On
Versions: 1 2 3 4 5 6 7 8 9 10 11 12 13 14
000
FTUS45 KABQ 221400 AAB
TAFLVS
TAF AMD
KLVS 221439Z 2215/2312 35010G18KT P6SM FEW080 BKN200
     FM221900 28020G31KT P6SM FEW040 SCT150
     FM230230 03011KT P6SM VCSH OVC020
     FM230600 04010KT 1 1/2SM -SN BR OVC009=

USA.gov is the U.S. government's official web portal to all federal, state and local government web resources and services.